Find Starlink 11349

NORAD ID: 61544 Int'l Des: 2024-184 Owner: SPXS Country: US Constellation: starlink operational
LEOCIRCULAR

リアルタイム位置

3D地球を読み込み中...

Starlink 11349について

説明を読み込み中...

次回通過

Passes for default location (London). Set your location on the main map for personalized predictions.

高度履歴

Loading altitude history...

軌道要素

1 61544U 24184N 26126.49039816 -.00003296 00000-0 -22374-4 0 9990
2 61544 53.1584 311.4681 0001039 72.1375 287.9756 15.69690574 89496
Epoch: May 6, 2026 • Age: 9 hours

現在のステータス

高度 365.0 km
速度 7.70 km/s
衛星直下点 50.58°N, 169.03°W
打ち上げ日 Oct 15, 2024
運用期間 1.5 years
タイプ internet

技術仕様

分類 Payload
質量 960.00 kg
乾燥質量 910.00 kg
総質量 960.00 kg
長さ 0.30 m
直径 4.10 m
スパン 29.00 m
形状 Box + pan
製造者 SPXS
バスタイプ Starlink V2MD
フェーズステータス In Orbit
所有者/国 SPXS/US

Most Searched